Flag for U.S.A. Weather past 2 weeks in Plano, Texas, U.S.A.

Now
91 °F

Scattered clouds.


Feels Like: 98 °F
Forecast: 78 / 90 °F
Wind: 9 mph from Southwest

Location: McKinney Municipal Airport

Current Time: Jul 4, 2015 at 3:14:42 PM

Latest Report: Jul 4, 2015 at 2:53 PM


Visibility: 10 mi

Pressure: 29.92 "Hg

Humidity: 54%

Dew point: 72 °F

Location of PlanoLocation

Historic Weather in Plano — Graph

°F

Plano temperature yesterday

Maximum temperature yesterday: 83 °F (at 12:53 AM)
Minimum temperature yesterday: 74 °F (at 1:53 PM)
Average temperature yesterday: 80 °F

Past Weeks' High & Low Weather Summary

 TemperatureHumidityPressure
High95 °F (Jun 26, 4:53 PM)97% (Jun 21, 9:56 AM)30.16 "Hg (Jun 21, 9:56 AM)
Low67 °F (Jun 28, 5:53 AM)36% (Jun 28, 5:53 PM)29.86 "Hg (Jul 2, 7:53 PM)
Average82 °F69%29.99 "Hg
* Reported Jun 19 1:53 PM — Jul 4 1:53 PM, Plano, Weather by CustomWeather, © 2015

Note: Actual official high and low records may vary slightly from our data, if they occured in-between our weather recording intervals... More about our weather records

Advertising

Plano weather history for previous 24 hours

 ConditionsComfort  
Time TempWeatherWind HumidityBarometerVisibility
1:53 PM
Sat, Jul 4
90 °FPassing clouds.8 mph56%29.93 "Hg10 mi
12:53 PM90 °FSunny.12 mph57%29.95 "Hg10 mi
11:53 AM87 °FPassing clouds.9 mph63%29.96 "Hg10 mi
10:53 AM85 °FPassing clouds.12 mph68%29.96 "Hg10 mi
9:53 AM84 °FSunny.8 mph67%29.96 "Hg10 mi
8:53 AM81 °FPartly sunny.9 mph74%29.96 "Hg10 mi
7:53 AM80 °FPartly sunny.9 mph76%29.95 "Hg10 mi
6:53 AM78 °FMostly cloudy.7 mph82%29.95 "Hg10 mi
5:53 AM79 °FOvercast.7 mph77%29.93 "Hg10 mi
4:53 AM79 °FPassing clouds.6 mph77%29.92 "Hg10 mi
3:53 AM80 °FClear.10 mph74%29.91 "Hg10 mi
2:53 AM79 °FClear.7 mph79%29.92 "Hg10 mi
1:53 AM79 °FClear.8 mph77%29.93 "Hg10 mi
12:53 AM77 °FClear.6 mph82%29.91 "Hg10 mi
11:53 PM
Fri, Jul 3
76 °FClear.6 mph88%29.91 "Hg10 mi
10:53 PM78 °FClear.7 mph82%29.91 "Hg10 mi
9:53 PM79 °FClear.No wind82%29.90 "Hg10 mi
8:53 PM80 °FSunny.6 mph85%29.88 "Hg10 mi
7:53 PM83 °FPassing clouds.5 mph85%29.88 "Hg10 mi
6:53 PM83 °FPassing clouds.3 mph79%29.88 "Hg10 mi
5:53 PM83 °FScattered clouds.8 mph77%29.88 "Hg10 mi
4:53 PM82 °FSunny.9 mph74%29.90 "Hg10 mi
3:53 PM82 °FScattered clouds.6 mph77%29.92 "Hg10 mi
Weather by CustomWeather, © 2015

See weather overviewHow to use our weather pages